DW6371 Weather Reports


time (UTC)temp
C
wind
direction
speed
KPH
gust
KPH
rain 1hr
cm
rain 24hr
cm
rain mn
cm
humidity
%
barometer
mb
20260506030039 8 185 14.5 20.9 0.00 0.03 0.03 69 1012.3
20260506025536 8 185 12.9 20.9 0.00 0.03 0.03 71 1012.3
20260506025035 7 185 8.0 11.3 0.00 0.03 0.03 73 1012.2
20260506024537 8 185 0.0 0.0 0.00 0.03 0.03 70 1011.7
20260506024033 8 185 0.0 0.0 0.00 0.03 0.03 69 1011.4
20260506023532 8 185 0.0 3.2 0.00 0.03 0.03 68 1011.2
20260506023049 9 185 0.0 8.0 0.00 0.03 0.03 67 1011.1
20260506022530 9 185 1.6 9.7 0.00 0.03 0.03 67 1011.1
20260506022027 10 185 4.8 9.7 0.00 0.03 0.03 65 1011.0
20260506021538 10 185 4.8 9.7 0.00 0.03 0.03 64 1010.9
20260506021025 10 185 6.4 16.1 0.00 0.03 0.03 62 1010.7
20260506020525 11 185 6.4 19.3 0.00 0.03 0.03 61 1010.6
20260506020027 10 185 4.8 20.9 0.00 0.03 0.03 62 1010.4
20260506015528 10 185 12.9 20.9 0.00 0.03 0.03 68 1010.4
20260506015026 11 185 6.4 27.4 0.00 0.03 0.03 60 1010.5
20260506014523 11 185 17.7 27.4 0.00 0.03 0.03 59 1010.9
20260506014023 12 185 17.7 25.7 0.00 0.03 0.03 54 1010.5
20260506013523 12 185 16.1 24.1 0.00 0.03 0.03 52 1010.1
20260506013030 12 185 9.7 16.1 0.00 0.03 0.03 53 1010.1
20260506012523 12 185 8.0 14.5 0.00 0.03 0.03 52 1009.9
20260506012023 12 185 6.4 14.5 0.00 0.03 0.03 51 1010.1
20260506011524 12 185 4.8 12.9 0.00 0.03 0.03 51 1010.1
20260506011022 12 185 4.8 12.9 0.00 0.03 0.03 50 1010.0
20260506010522 12 185 8.0 12.9 0.00 0.03 0.03 50 1009.8
20260506010021 12 185 6.4 19.3 0.00 0.03 0.03 49 1009.7
20260506005522 13 185 9.7 20.9 0.00 0.03 0.03 48 1009.6
20260506005025 13 185 12.9 24.1 0.00 0.03 0.03 47 1009.4
20260506004526 13 185 14.5 24.1 0.00 0.03 0.03 46 1009.3
20260506004021 14 185 16.1 29.0 0.00 0.03 0.03 45 1009.0
20260506003521 14 185 16.1 29.0 0.00 0.03 0.03 44 1009.0
20260506003021 15 185 9.7 19.3 0.00 0.03 0.03 43 1009.1
20260506002520 15 185 9.7 20.9 0.00 0.03 0.03 43 1009.1
20260506002024 16 185 9.7 20.9 0.00 0.03 0.03 42 1009.1
20260506001520 16 185 6.4 27.4 0.00 0.03 0.03 43 1009.1
20260506001020 15 185 14.5 27.4 0.00 0.03 0.03 42 1009.2
20260506000520 16 185 8.0 24.1 0.00 0.03 0.03 43 1009.2
20260506000023 16 185 11.3 24.1 0.00 0.03 0.03 42 1009.3
20260505235519 16 185 8.0 22.5 0.00 0.03 0.03 43 1009.1
20260505235019 16 185 9.7 25.7 0.00 0.03 0.03 43 1009.3
20260505234519 16 185 11.3 25.7 0.00 0.03 0.03 44 1009.3
20260505234019 15 185 8.0 20.9 0.00 0.03 0.03 45 1009.4
20260505233520 15 185 11.3 20.9 0.00 0.03 0.03 46 1009.4
20260505233018 15 185 8.0 17.7 0.00 0.03 0.03 48 1009.3
20260505232518 15 185 11.3 20.9 0.00 0.03 0.03 47 1009.3
20260505232021 15 185 6.4 20.9 0.00 0.03 0.03 48 1009.3
20260505231533 15 185 3.2 12.9 0.00 0.03 0.03 49 1009.3
20260505231021 15 185 3.2 14.5 0.00 0.03 0.03 49 1009.4
20260505230516 15 185 6.4 17.7 0.00 0.03 0.03 49 1009.4
20260505230023 15 185 4.8 25.7 0.00 0.03 0.03 49 1009.5
20260505225516 15 185 9.7 33.8 0.00 0.03 0.03 49 1009.4
20260505225016 15 185 14.5 33.8 0.00 0.03 0.03 51 1009.5
20260505224516 15 185 12.9 29.0 0.00 0.03 0.03 49 1009.4
20260505224016 15 185 12.9 37.0 0.00 0.03 0.03 47 1009.7
20260505223515 15 185 12.9 37.0 0.00 0.03 0.03 48 1009.6
20260505223015 15 185 9.7 25.7 0.00 0.03 0.03 45 1009.6
20260505222517 16 185 11.3 33.8 0.00 0.03 0.03 44 1009.5
20260505222018 16 185 17.7 33.8 0.00 0.03 0.03 45 1009.4
20260505221515 16 185 11.3 30.6 0.00 0.03 0.03 44 1009.4
20260505221015 15 185 14.5 30.6 0.00 0.03 0.03 47 1009.3
20260505220517 15 185 17.7 29.0 0.00 0.03 0.03 45 1009.3
20260505220017 16 185 17.7 29.0 0.00 0.03 0.03 47 1009.1
20260505215515 16 185 12.9 25.7 0.00 0.05 0.03 48 1009.2
20260505215014 15 185 11.3 33.8 0.00 0.05 0.03 50 1009.2
20260505214514 15 185 14.5 33.8 0.00 0.05 0.03 50 1009.1
20260505214018 15 185 14.5 29.0 0.00 0.05 0.03 51 1009.3
20260505213512 15 185 12.9 27.4 0.00 0.05 0.03 51 1009.5
20260505213017 15 185 12.9 24.1 0.00 0.05 0.03 52 1009.7
20260505212511 15 185 9.7 27.4 0.00 0.05 0.03 52 1009.7
20260505212012 15 185 12.9 27.4 0.00 0.05 0.03 52 1009.8
20260505211513 15 185 11.3 27.4 0.00 0.05 0.03 53 1009.7
20260505211010 15 185 9.7 22.5 0.00 0.05 0.03 51 1009.6
20260505210511 15 185 14.5 22.5 0.00 0.05 0.03 52 1009.5
20260505210013 15 185 9.7 24.1 0.00 0.05 0.03 50 1009.5
20260505205516 16 185 9.7 30.6 0.00 0.05 0.03 51 1009.5
20260505205010 15 185 17.7 30.6 0.00 0.05 0.03 52 1009.7
20260505204512 15 185 22.5 29.0 0.00 0.05 0.03 52 1009.7
20260505204009 15 185 12.9 29.0 0.00 0.05 0.03 51 1009.7
20260505203509 15 185 14.5 29.0 0.00 0.05 0.03 52 1009.9
20260505203014 15 185 12.9 27.4 0.00 0.05 0.03 52 1009.7
20260505202509 16 185 8.0 30.6 0.00 0.05 0.03 53 1009.7
20260505202009 16 185 16.1 37.0 0.03 0.05 0.03 52 1009.7
20260505201513 16 185 16.1 37.0 0.03 0.05 0.03 53 1009.4
20260505201011 16 185 12.9 27.4 0.03 0.05 0.03 54 1009.5
20260505200508 15 185 12.9 27.4 0.03 0.05 0.03 56 1009.4
20260505200011 15 185 14.5 27.4 0.03 0.05 0.03 58 1009.5
20260505195510 15 185 11.3 27.4 0.03 0.08 0.03 62 1009.6
20260505195008 14 185 11.3 30.6 0.03 0.08 0.03 61 1009.7
20260505194508 14 185 12.9 30.6 0.03 0.08 0.03 67 1009.6
20260505194010 13 185 16.1 29.0 0.03 0.08 0.03 69 1009.7
20260505193508 13 185 14.5 24.1 0.03 0.08 0.03 73 1009.7
20260505193008 12 185 12.9 24.1 0.03 0.08 0.03 78 1009.8
20260505192509 12 185 11.3 37.0 0.03 0.08 0.03 77 1009.9
20260505192005 13 185 17.7 37.0 0.00 0.05 0.00 64 1009.8
20260505191509 15 185 16.1 29.0 0.00 0.05 0.00 46 1009.7
20260505191005 16 185 9.7 25.7 0.00 0.05 0.00 45 1009.5
20260505190505 16 185 11.3 19.3 0.00 0.05 0.00 45 1009.5
20260505190001 17 185 8.0 19.3 0.00 0.05 0.00 46 1009.5
20260505185602 16 185 4.8 19.3 0.00 0.05 0.00 49 1009.6
20260505185100 15 185 4.8 20.9 0.00 0.05 0.00 48 1009.8
20260505184559 15 185 9.7 17.7 0.00 0.05 0.00 48 1009.8
20260505184059 15 185 1.6 25.7 0.00 0.05 0.00 51 1009.9
20260505183600 15 185 17.7 25.7 0.00 0.05 0.00 50 1009.9
20260505183100 15 185 12.9 25.7 0.00 0.05 0.00 50 1009.8
20260505182557 15 185 11.3 29.0 0.00 0.05 0.00 50 1010.0
20260505182057 15 185 17.7 29.0 0.00 0.05 0.00 49 1010.1
20260505181556 15 185 19.3 27.4 0.00 0.05 0.00 48 1010.2
20260505181055 15 185 9.7 22.5 0.00 0.05 0.00 48 1010.2
20260505180555 15 185 6.4 19.3 0.00 0.05 0.00 48 1010.4
20260505180101 15 185 11.3 19.3 0.00 0.05 0.00 49 1010.2
20260505175554 15 185 9.7 16.1 0.00 0.05 0.00 47 1010.4
20260505175054 15 185 1.6 17.7 0.00 0.05 0.00 46 1010.4
20260505174555 15 185 1.6 17.7 0.00 0.05 0.00 47 1010.5
20260505174052 15 185 1.6 11.3 0.00 0.05 0.00 47 1010.7
20260505173554 14 185 0.0 16.1 0.00 0.05 0.00 49 1010.6
20260505173057 14 185 9.7 16.1 0.00 0.05 0.00 48 1010.7
20260505172552 14 185 4.8 17.7 0.00 0.05 0.00 48 1010.7
20260505172051 14 185 9.7 17.7 0.00 0.05 0.00 49 1010.9
20260505171551 13 185 4.8 14.5 0.00 0.05 0.00 50 1010.8
20260505171050 13 185 0.0 8.0 0.00 0.05 0.00 49 1010.8
20260505170550 13 185 0.0 9.7 0.00 0.05 0.00 51 1010.8
20260505170106 13 185 0.0 9.7 0.00 0.05 0.00 52 1010.9
20260505165550 12 185 3.2 8.0 0.00 0.05 0.00 52 1010.8
20260505165054 12 185 0.0 0.0 0.00 0.05 0.00 53 1010.9
20260505164553 12 185 0.0 8.0 0.00 0.05 0.00 53 1010.9
20260505164049 12 185 0.0 14.5 0.00 0.05 0.00 53 1011.1
20260505163548 12 185 6.4 14.5 0.00 0.05 0.00 53 1011.1
20260505163049 12 185 6.4 12.9 0.00 0.05 0.00 53 1011.1
20260505162549 12 185 4.8 11.3 0.00 0.05 0.00 53 1011.1
20260505162054 12 185 0.0 12.9 0.00 0.05 0.00 52 1011.0
20260505161552 12 185 1.6 16.1 0.00 0.05 0.00 52 1011.1
20260505161049 12 185 8.0 16.1 0.00 0.05 0.00 51 1011.1
20260505160548 12 185 3.2 19.3 0.00 0.05 0.00 52 1011.3
20260505153059 12 185 9.7 17.7 0.00 0.05 0.00 51 1011.2
20260505152548 12 185 11.3 17.7 0.00 0.05 0.00 52 1011.3
20260505152046 12 185 4.8 17.7 0.00 0.05 0.00 51 1011.4
20260505151558 12 185 8.0 12.9 0.00 0.05 0.00 51 1011.4
20260505151049 12 185 8.0 16.1 0.00 0.05 0.00 51 1011.3
20260505150545 11 185 6.4 17.7 0.00 0.05 0.00 51 1011.3
20260505140540 12 185 8.0 14.5 0.00 0.05 0.00 48 1011.4
20260505125036 10 185 6.4 11.3 0.00 0.05 0.00 48 1011.0
20260505124536 10 185 8.0 12.9 0.00 0.05 0.00 48 1011.0
20260505124035 10 185 8.0 12.9 0.00 0.05 0.00 48 1010.8
20260505123538 11 185 6.4 12.9 0.00 0.05 0.00 47 1011.1
20260505123034 11 185 4.8 11.3 0.00 0.05 0.00 46 1011.1
20260505122533 11 185 0.0 8.0 0.00 0.05 0.00 46 1011.1
20260505122032 11 185 0.0 8.0 0.00 0.05 0.00 45 1011.1
20260505121532 11 185 1.6 8.0 0.00 0.05 0.00 44 1011.1
20260505121031 11 185 0.0 8.0 0.00 0.05 0.00 44 1011.1
20260505120530 11 185 0.0 6.4 0.00 0.05 0.00 43 1010.9
20260505120030 11 185 0.0 6.4 0.00 0.05 0.00 43 1010.9
20260505115533 11 185 0.0 9.7 0.00 0.05 0.00 42 1010.9
20260505115030 11 185 0.0 12.9 0.00 0.05 0.00 42 1010.8
20260505114530 11 185 4.8 11.3 0.00 0.05 0.00 42 1010.8
20260505114029 11 185 3.2 11.3 0.00 0.05 0.00 41 1010.8
20260505113529 11 185 0.0 11.3 0.00 0.05 0.00 41 1010.9
20260505113029 11 185 3.2 11.3 0.00 0.05 0.00 41 1010.9
20260505112529 12 185 8.0 12.9 0.00 0.05 0.00 40 1010.9
20260505112028 12 185 8.0 12.9 0.00 0.05 0.00 40 1010.9
20260505111528 11 185 6.4 12.9 0.00 0.05 0.00 40 1011.0
20260505111026 11 185 6.4 11.3 0.00 0.05 0.00 41 1011.1
20260505110527 11 185 0.0 12.9 0.00 0.05 0.00 40 1011.2
20260505102024 11 185 0.0 0.0 0.00 0.05 0.00 41 1011.0
20260505101522 11 185 0.0 0.0 0.00 0.05 0.00 41 1011.0
20260505101022 12 185 0.0 0.0 0.00 0.05 0.00 40 1011.0
20260505100523 11 185 0.0 0.0 0.00 0.05 0.00 41 1011.1
20260505100022 12 185 0.0 0.0 0.00 0.05 0.00 41 1011.2
20260505095521 12 185 0.0 0.0 0.00 0.05 0.00 40 1011.1
20260505095020 12 185 0.0 4.8 0.00 0.05 0.00 40 1011.0
20260505094519 12 185 0.0 8.0 0.00 0.05 0.00 40 1011.0
20260505094018 12 185 3.2 11.3 0.00 0.05 0.00 39 1010.9
20260505093518 12 185 3.2 11.3 0.00 0.05 0.00 39 1011.1
20260505093027 12 185 0.0 8.0 0.00 0.05 0.00 40 1011.1
20260505092517 12 185 0.0 9.7 0.00 0.05 0.00 40 1011.2
20260505092016 12 185 1.6 9.7 0.00 0.05 0.00 39 1011.2
20260505091516 12 185 0.0 1.6 0.00 0.05 0.00 39 1011.3
20260505091015 13 185 0.0 0.0 0.00 0.05 0.00 39 1011.5
20260505090512 13 185 0.0 9.7 0.00 0.05 0.00 38 1011.7
20260505090014 13 185 6.4 11.3 0.00 0.05 0.00 38 1011.6
20260505085513 13 185 4.8 16.1 0.00 0.05 0.00 37 1011.6
20260505085013 13 185 11.3 20.9 0.00 0.05 0.00 37 1011.6
20260505084511 13 185 11.3 24.1 0.00 0.05 0.00 36 1011.8
20260505084009 13 185 14.5 24.1 0.00 0.05 0.00 37 1011.6
20260505083510 13 185 9.7 20.9 0.00 0.05 0.00 37 1011.4
20260505083009 13 185 6.4 16.1 0.00 0.05 0.00 37 1011.4
20260505082509 13 185 9.7 16.1 0.00 0.05 0.00 37 1011.3
20260505082008 13 185 0.0 9.7 0.00 0.05 0.00 37 1011.4
20260505081508 13 185 0.0 17.7 0.00 0.05 0.00 37 1011.6
20260505081008 13 185 9.7 17.7 0.00 0.05 0.00 36 1011.7
20260505080507 13 185 9.7 16.1 0.00 0.05 0.00 36 1011.9
20260505080005 13 185 8.0 16.1 0.00 0.05 0.00 36 1011.7
20260505075505 13 185 9.7 16.1 0.00 0.05 0.00 35 1011.8
20260505075004 13 185 1.6 11.3 0.00 0.05 0.00 35 1011.8
20260505074504 13 185 0.0 0.0 0.00 0.05 0.00 35 1011.8
20260505074003 13 185 0.0 11.3 0.00 0.05 0.00 35 1012.0
20260505073503 13 185 0.0 11.3 0.00 0.05 0.00 35 1012.0
20260505073003 13 185 0.0 8.0 0.00 0.05 0.00 35 1012.2
20260505072501 14 185 0.0 11.3 0.00 0.05 0.00 34 1012.2
20260505072001 14 185 0.0 12.9 0.00 0.05 0.00 34 1012.3
20260505071600 14 185 1.6 12.9 0.00 0.05 0.00 34 1012.3
20260505071059 14 185 4.8 11.3 0.00 0.05 0.00 33 1012.3
20260505070558 14 185 0.0 11.3 0.00 0.05 0.00 33 1012.2
20260505070058 15 185 1.6 11.3 0.00 0.05 0.00 33 1012.1
20260505065557 15 185 0.0 9.7 0.00 0.05 0.00 32 1011.8
20260505065056 15 185 0.0 16.1 0.00 0.05 0.00 32 1011.8
20260505064558 15 185 0.0 16.1 0.00 0.05 0.00 32 1011.7
20260505064056 15 185 0.0 24.1 0.00 0.05 0.00 31 1011.4
20260505063557 15 185 11.3 24.1 0.00 0.05 0.00 31 1011.5
20260505063055 15 185 16.1 25.7 0.00 0.05 0.00 32 1011.6
20260505062555 15 185 16.1 25.7 0.00 0.05 0.00 32 1011.7
20260505062054 15 185 12.9 35.4 0.00 0.05 0.00 32 1011.8
20260505061557 14 185 14.5 35.4 0.00 0.05 0.00 33 1011.7
20260505061052 14 185 12.9 24.1 0.00 0.05 0.00 32 1011.6
20260505060551 14 185 12.9 25.7 0.00 0.05 0.00 30 1011.7
20260505060050 15 185 17.7 32.2 0.00 0.05 0.00 30 1011.7
20260505055550 15 185 20.9 32.2 0.00 0.05 0.05 30 1011.8
20260505055050 15 185 17.7 24.1 0.00 0.05 0.05 30 1011.8
20260505054550 15 185 16.1 25.7 0.00 0.05 0.05 30 1011.8
20260505054049 15 185 14.5 25.7 0.00 0.05 0.05 29 1011.7
20260505053550 15 185 14.5 24.1 0.00 0.05 0.05 30 1011.8
20260505053057 15 185 16.1 29.0 0.00 0.05 0.05 29 1011.9
20260505052549 15 185 19.3 29.0 0.00 0.05 0.05 29 1011.9
20260505052049 15 185 11.3 24.1 0.00 0.05 0.05 30 1011.9
20260505051549 15 185 9.7 24.1 0.00 0.05 0.05 31 1012.0
20260505051050 13 185 3.2 9.7 0.00 0.05 0.05 33 1012.0
20260505050549 13 185 4.8 9.7 0.00 0.05 0.05 33 1012.0
20260505041548 14 185 1.6 6.4 0.00 0.05 0.05 31 1012.3
20260505041047 15 185 0.0 6.4 0.00 0.05 0.05 30 1012.3
20260505040549 15 185 0.0 4.8 0.00 0.05 0.05 30 1012.4
20260505040047 15 185 0.0 6.4 0.00 0.05 0.05 29 1012.3
20260505035546 15 185 0.0 6.4 0.00 0.05 0.05 29 1012.3
20260505035050 15 185 0.0 6.4 0.00 0.05 0.05 28 1012.2
20260505034547 16 185 0.0 8.0 0.00 0.05 0.05 28 1012.1
20260505034047 16 185 1.6 12.9 0.00 0.05 0.05 27 1012.1
20260505033547 16 185 3.2 12.9 0.00 0.05 0.05 27 1012.0
20260505033108 16 185 3.2 12.9 0.00 0.05 0.05 26 1011.9
20260505032547 16 185 1.6 9.7 0.00 0.05 0.05 26 1011.8
20260505032046 17 185 0.0 8.0 0.00 0.05 0.05 26 1011.7
20260505031545 17 185 0.0 11.3 0.00 0.05 0.05 25 1011.6
20260505031049 17 185 3.2 14.5 0.00 0.05 0.05 25 1011.5
20260505030546 17 185 4.8 14.5 0.00 0.05 0.05 25 1011.4